Date,TemperatureHighF,TemperatureAvgF,TemperatureLowF,DewpointHighF,DewpointAvgF,DewpointLowF,HumidityHigh,HumidityAvg,HumidityLow,PressureMaxIn,PressureMinIn,WindSpeedMaxMPH,WindSpeedAvgMPH,GustSpeedMaxMPH,PrecipitationSumIn
2012-1-1,61.2,46.5,33.1,47.4,36.4,19.5,99,72,32,29.86,29.55,20,4,24,0.00
2012-1-2,46.0,37.0,26.6,23.5,9.3,-7.2,66,35,18,29.76,29.67,20,7,27,0.00
2012-1-3,33.1,27.1,23.4,10.0,3.6,-5.9,51,38,22,30.01,29.74,25,8,30,0.00
2012-1-4,47.5,31.9,20.1,16.8,4.6,-7.5,60,37,16,30.03,29.72,15,4,21,0.00
2012-1-5,49.5,36.9,32.7,29.2,23.3,12.8,76,59,33,29.80,29.69,13,4,17,0.00
2012-1-6,72.3,52.1,34.0,34.2,23.3,10.1,78,39,10,29.76,29.64,12,5,14,0.00
2012-1-7,68.9,53.7,39.9,46.9,43.1,23.9,93,69,36,29.81,29.62,15,3,22,0.00
2012-1-8,63.1,48.0,37.4,44.7,30.8,11.7,92,58,18,29.99,29.80,7,1,9,0.00
2012-1-9,47.1,39.4,36.1,40.2,33.5,28.4,99,80,64,30.00,29.77,11,3,14,0.04
2012-1-10,60.8,43.3,31.6,42.5,32.7,20.2,99,74,25,29.83,29.72,7,2,11,0.01
2012-1-11,39.4,37.3,35.8,36.9,34.5,32.2,96,90,83,29.74,29.70,3,1,4,0.00
2012-1-15,46.2,34.5,26.8,31.6,21.0,8.4,95,61,21,30.24,29.82,11,4,15,0.01
2012-1-16,46.0,35.8,23.9,31.3,24.1,18.1,84,64,44,30.26,29.97,12,5,17,0.00
2012-1-17,60.1,52.3,45.1,54.5,41.9,31.7,93,68,53,29.95,29.55,21,11,28,0.00
2012-1-18,55.9,41.7,31.1,53.9,23.1,13.8,93,48,36,29.86,29.55,19,7,24,0.00
2012-1-19,44.4,34.8,23.7,26.2,18.1,11.5,75,51,33,29.91,29.72,12,4,15,0.00
2012-1-20,48.9,41.4,32.4,34.3,30.3,24.5,93,67,41,29.90,29.72,10,3,13,0.13
2012-1-21,47.5,38.2,33.3,43.3,36.7,32.4,99,94,83,29.92,29.57,12,3,17,0.19
2012-1-22,36.5,35.0,33.4,33.9,30.5,22.8,94,84,74,30.11,29.92,12,4,15,0.01
2012-1-23,44.4,38.3,34.5,43.6,37.3,33.3,99,96,94,30.03,29.67,12,2,17,0.09
2012-1-24,68.4,49.4,36.5,46.5,33.5,8.5,99,66,14,29.95,29.70,11,3,18,0.01
2012-1-25,65.1,44.5,33.4,38.5,32.8,23.6,93,69,25,30.06,29.90,8,2,12,0.00
2012-1-26,62.1,51.2,38.3,58.0,46.1,35.2,98,83,54,29.91,29.40,16,3,21,0.00
2012-1-27,65.1,57.5,39.4,59.4,43.6,30.1,92,63,40,29.76,29.25,24,7,34,0.02
2012-1-28,61.7,43.9,30.4,35.7,29.7,7.1,91,62,25,29.95,29.71,24,4,30,0.00
2012-1-29,54.0,43.0,30.4,24.4,9.5,-0.6,71,33,14,30.06,29.88,26,6,34,0.00
2012-1-30,62.8,46.2,33.3,31.8,19.2,4.1,71,41,15,30.12,29.91,16,4,20,0.00
2012-1-31,71.8,53.6,36.9,32.6,21.3,0.9,78,40,10,30.03,29.88,18,5,27,0.00
2012-2-1,72.9,57.5,49.1,54.1,39.8,25.9,98,57,34,29.91,29.75,15,5,21,0.07
2012-2-2,65.8,54.3,41.2,52.8,38.3,14.8,99,65,18,30.06,29.69,17,4,24,0.00
2012-2-3,66.6,44.9,33.6,38.7,30.1,13.6,89,63,18,30.21,30.05,11,2,13,0.12
2012-2-4,53.1,42.4,36.9,47.0,38.6,-29.7,99,87,52,30.05,29.41,14,2,18,0.13
2012-2-5,41.4,38.4,33.3,39.1,37.5,33.0,99,97,88,29.97,29.74,11,4,14,0.21
2012-2-6,55.9,40.5,31.5,40.6,33.6,24.0,99,81,38,30.00,29.82,10,2,13,0.00
2012-2-7,70.2,48.3,34.5,37.1,26.9,5.2,95,54,11,29.90,29.83,11,2,16,0.00
2012-2-8,49.1,39.9,33.6,40.6,31.5,25.8,92,73,54,29.95,29.83,14,3,20,0.01
2012-2-9,57.7,41.3,32.7,29.5,23.2,8.8,72,53,19,30.01,29.88,16,4,19,0.00
2012-2-10,49.1,39.4,29.3,38.3,30.9,22.6,91,73,54,29.91,29.59,15,3,23,0.00
2012-2-11,45.7,36.1,22.3,39.6,17.9,-10.0,92,53,21,29.77,29.48,25,7,36,0.01
2012-2-12,45.0,30.3,21.4,8.3,1.8,-6.6,43,32,18,29.91,29.76,26,8,37,0.00
2012-2-13,55.4,39.7,30.9,26.1,12.5,-0.2,61,38,15,29.97,29.78,15,3,21,0.00
2012-2-14,51.1,46.7,41.0,39.3,28.4,7.9,72,51,30,29.80,29.67,21,5,26,0.00
2012-2-15,48.9,46.0,41.7,37.8,37.1,36.6,83,72,64,29.81,29.76,8,3,11,0.00
2012-2-16,53.8,49.5,45.7,49.4,43.3,30.8,99,81,46,29.97,29.73,4,1,4,0.15
2012-2-17,63.1,50.3,43.0,47.9,36.6,21.1,99,65,20,29.85,29.75,9,3,12,0.00
2012-2-18,63.5,55.0,38.8,42.3,27.6,15.3,79,42,19,29.85,29.67,17,4,24,0.00
2012-2-19,50.0,38.7,33.3,40.6,32.6,25.9,99,81,46,29.76,29.55,16,5,21,0.11
2012-2-20,60.1,39.8,30.0,34.0,28.3,14.4,98,70,23,30.06,29.70,13,2,17,0.17
2012-2-21,57.7,41.3,27.5,39.3,31.1,25.0,96,71,41,30.04,29.64,22,4,30,0.00
2012-2-22,66.6,51.9,39.6,49.1,35.5,9.3,94,63,14,29.65,29.28,29,5,36,0.21
2012-2-23,72.0,55.8,42.1,54.0,47.4,41.8,99,77,45,29.39,29.24,17,3,23,0.00
2012-2-24,79.7,62.3,44.8,60.4,46.6,14.4,92,61,28,29.58,29.13,29,9,39,0.00
2012-2-25,48.0,41.1,-8.3,26.3,12.3,-16.6,65,34,17,30.04,29.57,21,7,33,0.00
2012-2-26,59.4,41.5,30.0,28.4,14.3,2.2,64,39,16,30.19,30.02,12,3,16,0.00
2012-2-27,64.6,45.8,31.3,41.9,31.4,-16.0,82,60,37,30.14,29.96,14,3,17,0.00
2012-2-28,74.3,53.1,39.4,40.2,24.7,0.9,94,48,10,30.15,29.99,10,2,12,0.00
2012-2-29,66.0,55.7,44.2,60.4,49.6,35.1,96,81,61,30.00,29.47,22,6,26,0.21
2012-3-1,74.7,61.6,44.6,60.1,37.2,3.1,99,56,10,29.64,29.46,25,6,34,0.08
2012-3-2,52.9,45.9,39.7,47.1,42.0,36.0,99,87,68,29.75,29.42,11,2,16,0.17
2012-3-3,63.0,52.6,45.7,50.4,31.0,6.6,99,57,15,29.49,29.31,14,3,21,0.09
2012-3-4,52.5,45.0,36.3,26.2,16.1,3.8,53,35,21,29.70,29.41,17,6,24,0.00
2012-3-5,46.9,39.3,-8.3,34.1,18.8,-13.1,80,48,24,30.20,29.59,24,5,35,0.01
2012-3-6,61.7,47.1,41.5,14.0,11.2,5.3,32,27,15,30.31,30.19,13,3,19,0.00
2012-3-7,68.9,57.2,52.3,42.4,23.6,10.0,50,32,21,30.31,30.13,22,4,30,0.00
2012-3-8,61.2,61.2,61.2,41.0,41.0,41.0,49,49,49,30.13,30.13,0,0,3,0.00
2012-3-9,61.2,61.2,61.2,41.0,41.0,41.0,49,49,49,30.13,30.13,0,0,3,0.00
2012-3-10,61.2,61.2,61.2,41.0,41.0,41.0,49,49,49,30.13,30.13,0,0,3,0.00
2012-3-11,61.2,61.2,61.2,41.0,41.0,41.0,49,49,49,30.25,30.13,0,0,3,0.00
2012-3-12,61.2,61.2,61.2,41.0,41.0,41.0,49,49,49,30.25,30.25,0,0,3,0.00
2012-3-13,83.3,66.9,61.2,41.0,39.0,32.3,49,41,20,30.25,29.77,13,2,16,0.18
2012-3-14,88.3,82.3,-8.3,39.9,34.6,-16.3,66,22,15,29.93,29.85,8,1,11,0.00
2012-3-15,82.8,82.8,82.8,38.4,38.4,38.4,24,24,24,29.93,29.92,2,1,4,0.00
2012-3-20,90.7,70.3,0.0,63.4,59.5,0.0,96,73,35,29.98,29.80,27,3,30,1.18
2012-3-21,83.7,65.0,55.4,62.5,58.9,55.1,99,84,45,30.04,29.88,9,2,12,0.01
2012-3-22,83.8,69.9,59.5,62.2,58.9,54.1,96,72,42,29.96,29.82,15,3,18,0.00
2012-3-23,87.3,71.4,57.7,63.1,57.7,48.1,97,68,29,29.84,29.65,17,4,22,0.11
2012-3-24,75.2,64.0,58.6,62.7,59.6,53.2,97,87,52,29.70,29.42,31,3,43,1.12
2012-3-25,65.7,59.7,57.9,59.2,57.1,55.3,96,91,78,29.55,29.44,11,3,14,0.24
2012-3-26,74.8,64.3,56.5,57.7,39.6,1.5,92,50,10,29.86,29.53,20,6,29,0.00
2012-3-27,71.4,53.5,41.2,33.1,20.1,2.2,51,33,11,30.06,29.85,15,4,18,0.00
2012-3-28,86.0,65.7,47.8,54.4,41.5,27.4,74,46,22,29.92,29.48,27,7,34,0.00
2012-3-29,84.9,70.3,57.0,54.4,33.4,7.2,75,37,10,29.69,29.52,19,5,25,0.00
2012-3-30,80.8,62.6,51.4,55.2,44.0,37.9,74,54,27,29.80,29.54,11,2,14,0.00
2012-3-31,81.7,69.9,61.9,59.9,51.4,40.1,83,57,28,29.54,27.80,11,4,18,0.00
2012-4-1,76.8,64.3,53.6,54.3,50.0,44.0,88,63,39,29.62,29.37,14,4,20,0.00
2012-4-2,85.3,68.9,54.9,60.6,42.0,7.2,83,49,10,29.66,29.31,15,4,18,0.00
2012-4-3,84.9,63.0,44.2,58.7,47.4,38.6,97,61,33,29.73,29.52,15,3,17,0.00
2012-4-4,84.6,69.9,57.0,67.5,55.8,49.8,95,67,33,29.54,29.32,15,3,21,0.07
2012-4-5,67.6,55.3,47.7,61.3,43.7,26.0,88,67,32,29.60,29.39,14,5,21,0.00
2012-4-6,73.8,55.3,46.8,44.5,31.8,2.1,81,49,10,29.82,29.57,16,5,21,0.00
2012-4-7,79.3,57.2,40.3,38.9,20.1,0.9,74,36,10,29.97,29.78,12,3,16,0.00
2012-4-8,79.2,62.7,48.4,38.3,24.5,2.9,61,31,10,29.85,29.61,23,4,34,0.00
2012-4-9,75.7,63.8,47.8,41.2,17.8,1.6,63,24,10,29.75,29.50,19,6,28,0.00
2012-4-10,73.8,62.7,51.3,39.1,16.3,1.0,63,24,10,30.35,29.45,24,6,35,0.00
2012-4-11,56.8,48.4,41.2,30.1,21.9,15.2,60,38,25,29.85,29.53,19,6,25,0.00
2012-4-12,71.4,51.2,35.8,38.2,26.2,2.1,83,47,10,29.94,29.80,14,4,21,0.00
2012-4-13,73.8,56.6,43.7,40.8,29.0,-11.9,84,45,10,29.98,29.86,10,3,14,0.00
2012-4-14,77.0,60.7,43.2,49.3,38.6,26.8,94,52,24,29.99,29.82,23,6,30,0.00
2012-4-15,85.3,70.6,54.0,60.0,49.5,39.1,78,51,26,29.88,29.76,17,6,26,0.00
2012-4-16,88.0,75.7,62.2,62.0,58.9,53.8,91,60,35,29.84,29.72,21,8,27,0.00
2012-4-17,81.5,71.4,60.3,61.2,51.2,32.7,91,55,22,29.93,29.77,12,4,17,0.01
2012-4-18,64.9,54.7,51.6,58.6,51.0,46.2,94,88,53,29.97,29.82,18,5,21,0.69
2012-4-19,68.5,58.8,51.8,57.2,51.8,48.8,93,79,56,29.84,29.74,8,2,10,0.01
2012-4-20,79.0,64.5,57.0,57.5,55.0,50.6,97,75,44,29.75,29.56,11,2,14,0.00
2012-4-21,79.9,64.9,56.7,62.5,57.1,50.1,98,80,41,29.57,29.40,16,3,22,0.38
2012-4-22,60.3,54.5,48.7,56.3,51.5,43.5,96,90,81,29.48,29.25,13,5,20,0.53
2012-4-23,54.1,48.9,43.9,43.5,34.7,23.0,83,61,34,29.35,29.17,17,4,31,0.06
2012-4-24,67.1,53.1,44.4,38.3,19.0,2.4,72,34,11,29.49,29.32,19,5,24,0.00
2012-4-25,70.5,55.8,41.2,53.4,40.0,25.1,86,60,24,29.64,29.49,19,3,24,0.00
2012-4-26,76.1,63.4,56.5,65.4,58.9,53.0,99,87,64,29.60,29.42,14,3,17,0.67
2012-4-27,77.9,64.5,52.3,59.6,44.1,21.1,91,55,18,29.84,29.51,10,3,16,0.00
2012-4-28,61.0,54.8,51.4,48.5,39.6,31.4,85,58,41,30.01,29.82,11,4,15,0.00
2012-4-29,81.3,60.9,50.0,60.1,52.1,45.4,95,75,46,29.95,29.80,9,3,12,0.00
2012-4-30,66.6,63.4,60.6,64.5,61.2,58.0,98,93,84,29.96,29.80,5,2,8,0.00
2012-5-1,84.2,70.5,62.6,72.7,64.3,61.7,99,83,53,29.82,29.75,14,3,18,0.02
2012-5-3,95.0,74.6,64.4,69.8,66.6,56.2,99,80,35,29.85,29.75,14,2,17,0.28
2012-5-4,88.5,72.2,59.5,69.9,63.6,59.3,99,78,40,29.78,29.63,10,2,15,0.01
2012-5-5,83.1,70.7,64.2,67.9,65.7,63.1,96,85,54,29.66,29.57,7,2,10,0.00
2012-5-6,83.3,72.5,67.5,66.3,63.7,60.8,92,76,50,29.78,29.66,8,3,11,0.01
2012-5-7,78.1,69.0,62.8,64.5,62.4,60.1,96,80,60,29.80,29.68,8,2,9,0.01
2012-5-8,76.8,69.1,64.4,67.9,64.1,59.5,93,84,72,29.72,29.54,10,4,12,0.00
2012-5-9,73.2,66.6,62.6,66.0,62.5,57.3,99,88,63,29.59,29.46,7,2,11,0.58
2012-5-10,74.5,66.2,62.8,60.1,51.3,30.2,91,71,23,29.71,29.46,8,2,11,0.08
2012-5-11,81.9,75.5,74.3,30.2,26.7,14.5,23,21,12,29.93,29.71,10,2,14,0.00
2012-5-12,79.5,79.5,79.5,14.5,14.5,14.5,12,12,12,29.99,29.93,4,4,7,0.00
2012-5-13,79.5,79.5,79.5,14.5,14.5,14.5,12,12,12,29.98,29.98,4,4,7,0.00
2012-5-14,79.5,79.5,79.5,14.5,14.5,14.5,12,12,12,29.98,29.98,4,4,7,0.00
2012-5-15,88.9,76.6,32.2,69.4,38.5,-1.5,97,42,12,30.06,29.84,14,3,17,3.40
2012-5-16,87.1,71.0,60.6,68.4,60.1,49.6,99,74,33,29.91,29.81,8,2,11,0.00
2012-5-17,82.2,70.1,58.3,62.6,59.5,56.4,99,73,47,30.02,29.87,12,3,17,0.00
2012-5-18,81.3,68.8,61.2,61.5,49.9,37.0,82,55,25,30.09,30.01,11,3,16,0.00
2012-5-19,84.4,67.1,53.4,59.1,52.6,42.4,98,66,30,30.12,30.01,10,2,13,0.00
2012-5-20,85.3,69.0,55.6,68.8,58.1,46.6,99,75,33,30.09,29.99,16,2,27,0.04
2012-5-21,88.7,72.8,63.1,65.6,60.8,55.3,99,71,38,29.99,29.80,26,2,42,0.60
2012-5-22,91.4,72.0,61.3,69.3,63.5,59.4,99,79,41,29.86,29.72,11,2,14,0.34
2012-5-23,85.5,71.7,65.8,68.5,64.9,60.1,96,82,47,29.88,29.77,9,1,11,0.20
2012-5-24,86.7,71.4,63.5,69.4,65.6,61.5,95,83,55,30.00,29.88,8,2,10,0.01
2012-5-25,98.6,77.3,67.8,71.6,66.5,55.2,95,74,30,30.09,29.99,6,2,8,0.00
2012-5-26,95.2,77.8,66.6,70.8,68.1,65.5,99,76,43,30.11,30.01,10,2,12,0.01
2012-5-27,91.4,77.7,67.5,70.4,66.2,60.6,96,72,40,30.11,29.99,8,2,11,0.00
2012-5-28,89.4,77.9,67.8,72.3,68.8,64.3,97,77,48,30.04,29.90,14,3,19,0.00
2012-5-29,89.1,77.0,68.9,71.1,67.8,64.4,98,76,49,29.94,29.73,20,5,25,0.32
2012-5-30,85.3,73.7,69.4,69.9,67.0,51.4,96,82,35,29.80,29.70,10,3,14,0.02
2012-6-2,78.6,69.2,58.8,55.7,46.5,36.6,83,49,26,29.84,29.76,17,4,25,0.67
2012-6-3,88.9,69.6,55.0,61.0,51.8,44.7,84,58,28,29.86,29.70,17,4,25,0.00
2012-6-4,88.9,75.3,64.6,61.1,52.5,37.1,80,52,22,29.75,29.59,15,3,18,0.00
2012-6-5,79.2,67.8,62.2,61.3,55.8,49.5,89,69,39,29.87,29.68,14,3,18,0.02
2012-6-6,79.3,65.4,60.1,59.0,56.2,47.6,94,75,46,29.96,29.86,8,1,11,0.19
2012-6-7,90.0,70.9,58.5,62.6,55.5,42.8,95,66,23,30.00,29.91,14,2,21,0.06
2012-6-8,92.8,72.6,58.5,66.0,56.3,39.7,97,64,21,30.01,29.90,11,2,14,0.01
2012-6-9,94.5,76.4,60.6,69.6,59.4,41.0,93,63,22,30.01,29.92,6,1,7,0.00
2012-6-10,89.4,77.4,66.6,67.3,62.4,49.4,95,66,31,30.08,29.98,14,3,18,0.00
2012-6-11,86.5,74.9,68.7,72.3,68.4,61.9,94,81,61,30.08,29.94,9,2,14,0.44
2012-6-12,89.8,76.9,70.0,75.8,71.6,65.9,95,85,52,29.95,29.77,11,3,14,0.52
2012-6-13,87.4,77.4,66.4,69.1,63.9,56.7,97,68,40,29.99,29.83,9,3,14,0.00
2012-6-14,83.1,71.0,59.7,63.8,60.3,54.2,99,72,49,30.12,29.99,13,3,16,0.00
2012-6-15,85.3,72.2,65.5,65.2,61.1,54.2,95,72,42,30.20,30.11,11,3,16,0.00
2012-6-16,84.2,71.1,58.8,64.9,56.2,51.4,99,64,39,30.25,30.09,9,2,12,0.00
2012-6-17,85.5,71.2,59.2,65.3,59.5,52.3,98,70,42,30.14,29.96,8,1,9,0.00
2012-6-18,84.6,71.2,64.6,71.9,66.0,60.3,99,84,62,30.03,29.95,14,2,18,0.31
2012-6-19,98.8,78.3,67.1,76.5,69.2,61.2,99,79,35,30.09,30.02,4,1,5,0.00
2012-6-20,100.8,82.8,70.3,79.0,72.5,66.8,98,76,38,30.11,29.99,4,1,7,0.00
2012-6-21,101.7,85.9,73.0,80.1,72.1,60.1,95,70,32,30.00,29.82,8,1,10,0.00
2012-6-22,93.4,82.4,73.2,76.7,72.4,67.0,93,74,47,29.87,29.76,15,2,20,0.00
2012-6-23,81.9,73.8,0.0,72.5,69.5,66.6,94,85,63,29.91,29.83,8,2,11,0.00
2012-6-24,92.5,64.2,25.3,73.5,52.9,-2.8,95,71,22,30.11,29.86,17,3,30,0.33
2012-6-25,95.0,82.0,70.5,72.4,64.9,51.3,95,63,35,29.89,29.67,15,4,23,0.01
2012-6-26,87.3,74.2,66.0,60.3,49.2,36.1,76,45,24,29.91,29.77,13,4,16,0.00
2012-6-27,95.4,73.7,58.6,65.9,53.1,38.1,90,56,20,29.97,29.86,12,2,14,0.00
2012-6-28,94.5,79.8,61.9,64.9,60.3,51.4,95,58,29,29.97,29.80,15,4,21,0.00
2012-6-29,107.2,91.3,76.6,80.5,68.6,62.2,80,51,33,29.85,29.70,9,4,12,0.00
2012-6-30,99.3,86.8,74.5,77.1,69.5,59.7,90,60,30,29.97,29.80,28,3,44,0.02
2012-7-1,83.8,81.1,78.1,75.1,71.8,69.5,84,74,67,29.93,29.88,5,2,7,0.00
2012-7-2,99.7,84.0,71.8,74.6,66.2,59.5,84,60,31,29.99,29.90,16,4,28,0.04
2012-7-3,101.1,83.0,73.2,76.4,70.1,65.7,91,69,38,29.99,29.89,12,2,17,0.00
2012-7-4,101.8,85.7,74.3,75.3,70.2,61.7,91,65,33,29.96,29.84,10,2,14,0.00
2012-7-5,105.6,86.9,75.2,75.5,70.3,57.8,92,64,30,29.91,29.83,11,2,17,0.00
2012-7-6,105.3,90.3,74.1,77.8,69.6,60.1,86,56,30,29.96,29.88,6,2,8,0.00
2012-7-7,107.4,92.1,77.0,78.6,72.8,64.9,92,59,30,29.96,29.85,8,2,10,0.00
2012-7-8,105.6,91.3,77.9,78.0,71.1,40.2,88,57,31,29.91,29.77,100,3,100,0.11
2012-7-9,80.4,78.9,77.5,76.1,74.1,72.0,92,86,78,29.89,29.81,8,2,10,0.00
2012-7-10,92.3,81.1,73.8,74.0,67.7,63.4,91,66,44,30.02,29.92,9,3,14,0.01
2012-7-11,85.5,77.0,69.4,70.7,67.5,63.9,91,75,52,30.12,30.00,11,3,15,0.02
2012-7-12,83.5,75.3,69.3,70.0,66.7,62.8,92,76,52,30.16,30.09,12,2,14,0.00
2012-7-13,88.2,77.9,72.9,74.4,69.0,64.1,94,76,50,30.18,30.11,9,2,11,0.35
2012-7-14,90.9,79.8,75.7,75.6,73.8,69.5,94,83,55,30.18,30.07,13,3,17,0.02
2012-7-15,94.1,82.0,74.1,76.8,73.7,69.0,95,79,47,30.15,30.01,14,2,19,0.91
2012-7-16,101.7,83.1,75.7,76.7,70.6,64.1,91,70,36,30.04,29.88,14,2,19,0.01
2012-7-17,101.3,85.8,72.5,77.6,70.2,58.2,94,66,29,29.95,29.83,6,2,8,0.00
2012-7-18,99.0,86.3,76.3,75.2,71.9,67.1,91,65,41,29.94,29.84,12,3,17,0.00
2012-7-19,99.1,82.8,74.3,78.1,71.5,64.6,96,72,38,29.97,29.87,15,2,24,0.28
2012-7-20,92.8,78.8,71.6,75.8,72.0,65.6,96,82,45,29.93,29.84,7,2,11,0.02
2012-7-21,93.9,81.7,74.8,76.2,72.9,69.2,95,77,49,30.08,29.89,10,2,14,0.02
2012-7-22,90.9,78.5,72.0,75.9,72.2,69.3,94,83,60,30.16,30.06,9,3,11,0.01
2012-7-23,96.3,79.8,73.4,75.6,73.1,49.6,97,82,46,30.12,29.98,15,3,100,0.80
2012-7-24,92.3,81.2,73.8,77.0,71.6,65.1,97,75,54,29.98,29.77,19,3,26,0.02
2012-7-25,92.5,82.0,72.0,75.3,69.6,64.7,91,69,46,29.94,29.84,9,2,11,0.00
2012-7-26,97.7,86.7,75.2,76.9,72.9,65.8,95,68,40,29.86,29.72,17,4,23,0.00
2012-7-27,96.3,83.2,76.8,74.5,71.7,67.9,88,71,45,29.91,29.78,24,2,40,0.00
2012-7-28,96.3,85.6,81.1,72.8,67.7,59.9,71,59,35,29.96,29.86,13,2,17,0.00
2012-7-29,96.6,86.3,83.8,70.9,69.1,58.2,66,59,33,30.00,29.91,8,2,12,0.00
2012-7-30,88.5,88.5,88.5,70.6,70.6,70.6,57,57,57,30.02,29.92,8,2,10,0.24
2012-7-31,88.5,88.5,88.5,70.6,70.6,70.6,57,57,57,29.98,29.84,2,2,4,0.24
2012-8-1,88.5,88.5,88.5,70.6,70.6,70.6,57,57,57,29.93,29.79,2,2,4,0.24
2012-8-2,88.5,72.4,0.0,70.6,70.6,70.6,57,47,57,29.90,29.81,2,1,4,0.24
2012-8-3,0.0,0.0,0.0,70.6,70.6,70.6,0,0,100,30.04,29.89,0,0,0,0.24
2012-8-4,0.0,0.0,0.0,70.6,70.6,70.6,0,0,100,30.14,30.02,0,0,0,0.24
2012-8-5,0.0,0.0,0.0,70.6,70.6,70.6,0,0,100,30.16,30.03,0,0,0,0.24
2012-8-6,0.0,0.0,0.0,70.6,70.6,70.6,0,0,100,30.08,29.98,0,0,0,0.24
2012-8-7,0.0,0.0,0.0,70.6,70.6,70.6,0,0,100,30.00,29.91,0,0,0,0.24
2012-8-8,0.0,0.0,0.0,70.6,70.6,70.6,0,0,100,29.97,29.89,0,0,0,0.24
2012-8-9,0.0,0.0,0.0,70.6,70.6,70.6,0,0,100,29.95,29.81,0,0,0,0.24
2012-8-10,0.0,0.0,0.0,70.6,70.6,70.6,0,0,100,29.83,29.74,0,0,0,0.24
2012-8-11,0.0,0.0,0.0,70.6,70.6,70.6,0,0,100,29.81,29.78,0,0,0,0.24
2012-8-15,0.0,0.0,0.0,0.0,0.0,0.0,0,0,100,29.91,29.84,0,0,0,0.24
2012-8-16,96.6,73.8,0.0,67.9,50.9,-2.8,73,49,22,30.03,29.80,16,4,30,0.24
2012-8-17,90.7,78.4,65.5,70.5,64.0,58.9,98,66,39,29.87,29.70,14,2,17,0.00
2012-8-18,92.8,78.2,71.6,67.2,61.3,50.2,81,61,29,29.83,29.73,8,2,12,0.00
2012-8-19,72.7,69.0,66.7,67.6,64.8,61.2,97,87,70,29.84,29.76,13,3,16,0.52
2012-8-20,84.4,71.3,66.9,67.8,64.7,58.6,99,81,48,29.87,29.74,9,2,14,0.31
2012-8-21,89.1,74.8,63.9,69.1,62.2,26.5,99,72,31,29.97,29.54,7,1,8,0.01
2012-8-22,70.9,68.8,68.0,66.6,66.1,64.7,95,92,81,29.99,29.96,11,3,14,0.27
2012-8-23,93.4,79.7,67.8,67.9,65.3,61.3,98,64,36,30.05,29.98,5,2,7,0.00
2012-8-24,88.5,75.6,67.6,68.0,60.8,56.3,98,64,36,30.06,29.99,4,1,7,0.00
2012-8-25,77.7,70.6,65.1,65.7,61.9,56.6,98,76,53,30.06,29.98,14,4,21,0.02
2012-8-26,95.9,73.7,67.3,69.6,65.7,59.9,96,79,39,30.08,29.98,11,3,17,0.02
2012-8-27,95.4,76.4,65.7,73.6,66.9,61.6,99,77,38,30.06,29.89,7,2,8,0.00
2012-8-28,94.3,76.8,66.0,73.8,68.2,63.8,98,79,42,29.91,29.79,9,2,14,0.00
2012-8-29,95.2,79.2,69.3,72.6,65.6,51.7,96,70,30,29.91,29.81,8,2,10,0.00
2012-8-30,92.8,78.9,69.1,72.9,68.5,61.4,98,75,41,30.01,29.89,11,2,15,0.00
2012-8-31,102.6,82.7,72.1,76.4,71.1,61.5,98,74,32,30.09,29.93,8,2,11,0.00
2012-9-1,98.1,80.6,73.2,74.6,71.3,64.4,95,77,40,30.03,29.92,13,2,18,0.02
2012-9-2,97.3,78.2,71.2,77.0,72.0,9.0,98,84,40,29.95,29.82,20,2,25,0.54
2012-9-3,82.0,74.2,70.5,76.1,72.0,69.9,98,93,78,29.94,29.85,7,1,14,0.15
2012-9-4,84.9,76.3,72.0,74.7,72.7,71.1,98,89,66,29.90,29.78,14,2,18,2.49
2012-9-5,86.9,70.8,0.0,74.5,72.9,70.9,98,75,62,29.81,29.71,16,3,19,0.08
2012-9-6,91.0,78.0,71.1,74.3,71.5,64.5,98,83,44,29.85,29.72,8,2,11,0.00
2012-9-7,96.1,77.7,68.0,72.2,68.9,66.3,99,79,42,29.87,29.73,8,2,10,0.00
2012-9-8,86.5,75.8,66.7,72.6,67.2,54.1,98,76,58,29.78,29.57,21,4,28,0.24
2012-9-9,83.3,72.4,61.3,55.0,50.5,42.6,75,51,30,29.90,29.74,14,4,18,0.00
2012-9-10,82.8,75.3,56.5,57.0,48.1,35.2,96,45,25,30.07,29.89,12,4,15,0.00
2012-9-11,88.0,68.6,54.0,61.2,53.6,44.8,97,65,30,30.20,30.07,8,2,9,0.00
2012-9-12,89.4,68.6,55.9,63.7,57.4,48.7,99,73,29,30.24,30.14,11,2,14,0.00
2012-9-13,90.5,68.1,55.8,59.9,54.8,41.6,99,70,22,30.26,30.12,8,2,11,0.00
2012-9-14,89.8,68.1,57.4,63.0,56.7,38.1,97,73,20,30.18,30.02,8,2,11,0.00
2012-9-15,84.0,70.2,61.2,64.1,60.7,58.1,98,75,45,30.09,29.99,11,2,12,0.07
2012-9-16,67.3,63.8,59.5,61.3,58.9,57.0,95,85,76,30.07,29.96,6,1,7,0.04
2012-9-17,71.1,66.2,62.2,68.7,63.9,60.6,99,92,81,30.00,29.78,6,1,8,0.27
2012-9-18,77.2,70.7,66.2,72.0,68.4,58.5,99,93,72,29.78,29.55,22,4,32,0.65
2012-9-19,83.3,67.2,58.5,58.9,52.6,42.3,93,64,28,30.03,29.73,11,2,17,0.00
2012-9-20,81.5,65.2,56.5,62.5,57.5,52.6,99,80,43,30.06,29.91,11,2,14,0.00
2012-9-21,84.7,69.3,56.8,64.7,59.7,56.3,99,77,43,29.96,29.84,9,2,12,0.00
2012-9-22,88.3,72.9,62.2,66.9,59.9,38.4,99,70,33,29.87,29.72,17,4,23,0.00
2012-9-23,82.4,67.3,55.9,50.9,35.5,14.4,65,39,12,30.05,29.86,12,3,16,0.00
2012-9-24,72.1,59.3,47.3,49.8,40.3,28.5,89,58,23,30.13,30.01,8,4,11,0.00
2012-9-25,78.8,60.3,46.9,60.4,51.2,44.6,99,77,34,30.10,29.94,13,2,16,0.04
2012-9-26,87.8,69.7,56.1,66.9,60.8,55.8,99,78,43,30.06,29.98,11,2,15,0.01
2012-9-27,94.3,73.0,60.4,68.0,62.4,54.1,99,76,32,30.06,29.94,24,1,24,0.00
2012-9-28,83.7,70.6,62.8,67.5,63.9,58.0,97,81,48,29.97,29.86,9,1,14,0.05
2012-9-29,70.5,64.8,60.8,66.8,60.4,2.5,99,86,62,29.91,29.78,10,2,14,0.06
2012-9-30,79.0,64.2,53.4,59.5,53.2,43.0,99,72,34,29.81,29.70,10,2,14,0.00
2012-10-1,62.2,60.1,58.3,60.4,58.5,55.0,99,95,86,29.82,29.74,8,3,10,0.25
2012-10-2,66.2,61.7,60.3,64.5,61.1,60.0,99,98,95,29.78,29.72,8,4,11,0.27
2012-10-9,64.4,54.0,45.9,53.7,48.3,45.1,97,82,54,30.06,29.93,8,3,12,0.01
2012-10-10,70.2,59.6,48.0,54.2,48.4,40.4,99,70,42,29.99,29.84,12,4,21,0.00
2012-10-11,72.5,56.4,48.9,46.4,38.6,28.7,86,55,24,30.17,30.01,8,3,12,0.00
2012-10-12,79.5,57.9,45.3,51.0,43.9,33.9,99,68,20,30.25,30.03,8,2,11,0.00
2012-10-13,68.9,53.6,44.1,48.6,41.8,34.9,98,68,35,30.35,30.18,7,2,10,0.00
2012-10-14,74.3,60.2,45.9,60.7,52.2,45.1,99,78,52,30.18,29.86,17,4,20,0.00
2012-10-15,77.2,63.8,57.7,62.6,49.1,37.8,97,63,32,29.85,29.56,14,6,22,0.22
2012-10-16,80.8,58.0,46.6,50.1,41.7,27.8,91,61,18,29.83,29.71,11,2,16,0.00
2012-10-17,75.9,56.3,44.1,51.6,46.3,43.1,98,75,37,29.88,29.75,10,2,14,0.00
2012-10-18,72.7,59.1,48.6,62.9,54.8,47.5,99,87,62,29.80,29.62,9,2,11,0.01
2012-10-19,74.8,62.6,52.3,61.8,45.5,24.6,99,65,21,29.64,29.52,15,3,19,0.01
2012-10-20,70.0,57.3,47.8,46.1,40.0,32.5,87,57,30,29.84,29.58,17,3,27,0.00
2012-10-21,80.1,54.1,41.5,46.9,40.2,25.6,99,68,20,30.03,29.84,17,2,20,0.00
2012-10-22,84.6,56.9,42.1,54.4,45.8,38.9,99,74,28,30.11,29.98,7,2,9,0.00
2012-10-23,86.2,63.6,49.1,56.8,50.8,40.3,99,72,24,30.04,29.92,12,2,15,0.00
2012-10-24,96.1,67.3,54.1,57.3,52.4,-10.3,99,69,18,30.05,29.93,6,1,8,0.00
2012-10-25,86.9,65.7,53.1,56.9,53.1,43.9,98,72,27,30.04,29.96,5,1,8,0.00
2012-10-26,71.1,61.6,55.8,60.6,58.3,54.3,99,90,66,30.04,29.88,8,2,9,0.00
2012-10-27,70.5,64.4,61.5,61.1,57.0,52.3,98,79,57,29.88,29.65,13,5,17,0.04
2012-10-28,67.8,60.5,49.5,54.3,49.1,43.1,85,68,48,29.68,29.49,18,8,23,0.04
2012-10-29,49.3,45.5,43.3,45.2,38.3,31.6,91,77,57,29.54,29.07,21,7,35,0.27
2012-10-30,46.4,44.8,41.5,32.7,28.9,27.0,70,55,50,29.40,29.05,24,8,36,0.00
2012-10-31,45.5,45.5,45.5,27.8,27.8,27.8,51,51,51,29.42,29.39,7,7,15,0.00
2012-11-2,0.0,0.0,0.0,0.0,0.0,0.0,0,0,100,29.83,29.68,0,0,0,0.00
2012-11-3,0.0,0.0,0.0,0.0,0.0,0.0,0,0,100,29.97,29.83,0,0,0,0.00
2012-11-4,0.0,0.0,0.0,0.0,0.0,0.0,0,0,100,29.95,29.83,0,0,0,0.00
2012-11-5,0.0,0.0,0.0,0.0,0.0,0.0,0,0,100,29.98,29.88,0,0,0,0.00
2012-11-6,0.0,0.0,0.0,0.0,0.0,0.0,0,0,100,30.03,29.81,0,0,0,0.00
2012-11-7,0.0,0.0,0.0,0.0,0.0,0.0,0,0,100,29.82,29.70,0,0,0,0.00
2012-11-8,0.0,0.0,0.0,0.0,0.0,0.0,0,0,100,30.00,29.78,0,0,0,0.00
2012-11-9,81.3,29.8,0.0,37.6,16.6,-1.5,76,26,10,30.09,29.83,8,1,11,3.37
2012-11-10,42.6,40.6,40.5,36.5,34.2,32.8,80,78,73,30.03,29.91,3,2,4,0.00
2012-11-11,40.5,40.5,40.5,34.1,34.1,34.1,78,78,78,30.14,30.03,2,2,3,0.00
2012-11-12,40.5,40.5,40.5,34.1,34.1,34.1,78,78,78,30.08,29.83,2,2,3,0.00
2012-11-13,40.5,40.5,40.5,34.1,34.1,34.1,78,78,78,30.13,29.88,2,2,3,0.00
2012-11-14,40.5,22.0,0.0,34.1,34.1,34.1,78,42,78,30.17,30.11,2,1,3,0.00
2012-11-15,48.0,42.5,37.4,37.9,36.5,35.3,95,80,63,29.73,29.70,4,2,6,8.87
2012-11-16,68.2,47.4,31.3,38.5,33.6,23.5,99,68,23,29.86,29.71,6,2,8,0.00
2012-11-17,60.6,44.4,32.0,39.1,26.9,13.5,99,60,20,29.98,29.85,12,4,17,0.00
2012-11-18,57.2,49.6,43.3,41.4,36.7,29.6,73,62,52,29.97,29.86,15,5,21,0.00
2012-11-19,66.4,50.2,43.9,43.3,41.4,36.9,93,73,41,29.87,29.64,13,5,17,0.00
2012-11-20,56.7,47.8,43.9,43.0,41.8,39.6,93,81,56,29.66,29.50,4,1,7,0.00
2012-11-21,73.6,54.5,50.5,41.7,39.8,25.9,72,61,21,29.65,29.55,4,1,6,0.00
2012-11-22,75.0,63.5,55.0,39.6,27.0,2.6,57,36,10,29.70,29.59,7,1,10,0.00
2012-11-23,73.8,71.1,61.2,34.8,22.4,12.7,35,21,13,29.60,29.29,17,3,24,0.00
2012-11-24,69.8,69.8,69.8,33.4,33.4,33.4,29,29,29,29.54,29.35,16,8,24,0.00
2012-11-25,69.8,69.8,69.8,33.4,33.4,33.4,29,29,29,29.56,29.38,13,7,17,0.00
2012-11-26,69.8,69.8,69.8,33.4,33.4,33.4,29,29,29,29.62,29.46,7,7,8,0.00
2012-11-27,69.8,69.8,69.8,33.4,33.4,33.4,29,29,29,29.61,29.54,7,7,8,0.00
2012-12-3,75.0,60.3,31.6,54.3,48.9,-2.0,93,69,23,29.91,29.77,9,1,16,0.00
2012-12-4,75.0,59.1,45.5,51.4,48.0,44.7,99,69,37,29.93,29.76,13,3,17,0.00
2012-12-5,69.3,56.5,41.2,53.6,35.9,0.9,92,55,10,29.88,29.72,14,3,17,0.01
2012-12-6,53.6,41.7,34.2,36.0,28.9,22.9,88,63,35,30.01,29.86,10,2,13,0.00
2012-12-7,52.3,46.3,42.3,46.9,39.9,32.2,99,79,63,29.86,29.64,6,1,8,0.01
2012-12-8,71.4,54.2,47.1,53.4,49.6,46.9,99,87,50,29.67,29.57,12,3,15,0.00
2012-12-9,63.7,54.1,47.5,56.4,51.7,47.2,99,92,69,29.78,29.62,8,2,11,0.01
2012-12-10,65.8,60.5,54.7,58.6,57.0,53.8,99,88,73,29.62,29.27,18,4,22,0.00
2012-12-11,62.6,47.6,39.9,57.1,33.2,26.9,83,59,40,29.83,29.32,17,6,20,0.00
2012-12-12,46.4,42.7,39.9,31.7,27.8,23.3,69,57,45,30.01,29.83,12,5,15,0.00
2012-12-13,62.8,41.8,32.0,30.0,23.2,7.5,78,53,15,30.09,29.97,11,4,14,0.00
2012-12-14,77.4,41.4,26.6,32.1,23.3,0.9,85,59,10,29.99,29.85,4,1,7,0.00
2012-12-15,67.5,46.5,35.8,35.1,29.0,13.7,83,57,18,29.91,29.70,10,1,11,0.00
2012-12-16,49.5,45.5,42.3,48.1,41.4,30.6,99,87,51,29.72,29.55,8,1,9,0.20
2012-12-17,57.0,52.7,46.9,55.0,51.4,46.7,99,95,89,29.14,28.88,8,2,14,0.04
2012-12-18,59.4,48.3,37.6,52.2,35.1,27.7,94,63,35,29.16,28.89,17,4,33,0.00
2012-12-19,74.3,51.3,35.2,38.6,29.4,2.1,92,52,10,29.80,29.11,13,3,17,0.00
2012-12-20,46.8,43.2,36.9,43.9,37.7,31.9,99,82,60,29.83,29.11,8,2,11,0.48
2012-12-21,48.0,39.6,35.6,44.2,23.1,16.8,98,53,44,29.42,29.11,26,10,33,0.01
2012-12-22,50.5,39.6,33.8,21.8,15.2,0.8,59,40,18,29.73,29.41,21,7,32,0.00
2012-12-23,53.1,40.4,28.4,22.9,15.7,8.3,71,43,20,29.74,29.59,11,4,15,0.00
2012-12-24,44.6,42.4,40.6,43.2,40.1,31.2,99,92,62,29.64,29.51,8,1,9,0.64
2012-12-25,60.3,44.7,35.6,47.9,40.2,34.8,99,86,50,29.78,29.55,7,2,10,0.01
2012-12-26,42.8,36.6,34.3,38.9,34.6,32.8,98,92,80,29.74,29.15,20,8,27,1.11
2012-12-27,46.2,39.2,33.4,34.2,26.0,22.0,70,59,43,29.74,29.21,15,7,21,0.00
2012-12-28,44.4,36.4,30.9,27.3,24.7,22.6,80,63,46,29.80,29.62,7,2,8,0.00
2012-12-29,50.2,40.0,34.0,39.4,31.0,23.2,94,72,46,29.61,29.29,14,4,17,0.14
2012-12-30,47.3,37.4,29.1,23.3,16.8,9.2,62,44,22,30.01,29.62,20,7,23,0.00
2012-12-31,48.2,38.2,27.7,26.6,19.7,10.3,75,50,22,29.98,29.71,8,3,10,0.00
2013-1-1,50.9,46.9,42.6,44.2,37.6,8.2,96,73,20,29.71,29.53,8,2,9,0.27